Crumpler, NC

7:06 AM EST on February 22, 2017 (GMT -0500)
Ashe County

Weather History for KGEV - March, 2011

Change the Weather History Date:

Monday, March 7, 2011

  Actual Average Record
Temperature  
Mean Temperature 34 °F -  
Max Temperature 42 °F 50 °F 75 °F (2009)
Min Temperature 26 °F 28 °F 18 °F (1966)
Degree Days  
Heating Degree Days 31    
Moisture  
Dew Point 18 °F    
Average Humidity 56    
Maximum Humidity 93    
Minimum Humidity 26    
Precipitation  
Precipitation 0.01 in - - ()
Sea Level Pressure  
Sea Level Pressure 30.07 in    
Wind  
Wind Speed 10 mph (North)    
Max Wind Speed 21 mph    
Max Gust Speed 31 mph    
Visibility 10 miles    
Events      
Averages and records for this station are not official NWS values.
T = Trace of Precipitation, MM = Missing Value Source: NWS Daily Summary

Daily Weather History Graph

Daily Weather History Graph

Search for Another Location

Airport or City:

Trip Planner

Search our weather history database for the weather conditions in past years. The results will help you decide how hot, cold, wet, or windy it might be!

Date:

Astronomy

Mar. 07, 2011 Rise Set
Actual Time 6:48 AM EST 6:25 PM EST
Civil Twilight 6:22 AM EST 6:51 PM EST
Nautical Twilight 5:52 AM EST 7:21 PM EST
Astronomical Twilight 5:22 AM EST 7:51 PM EST
Moon 7:44 AM EST (3/7) 9:17 PM EST (3/7)
Length of Visible Light 12h 28m
Length of Day
11h 37m
Waxing Crescent, 7% of the Moon is Illuminated
Mar 7
Waxing Crescent
Mar 12
First Quarter
Mar 19
Full
Mar 26
Last Quarter
Apr 3
New

Hourly Weather History & Observations

Time (EST) Temp. Windchill Dew Point Humidity Pressure Visibility Wind Dir Wind Speed Gust Speed Precip Events Conditions
12:02 AM 26.6 °F 15.2 °F 23.0 °F 86% 29.92 in 10.0 mi NW 13.8 mph 28.8 mph N/A   Overcast
12:24 AM 26.6 °F 13.4 °F 24.8 °F 93% 29.91 in 10.0 mi NW 18.4 mph 26.5 mph N/A   Overcast
12:44 AM 26.6 °F 14.3 °F 24.8 °F 93% 29.91 in 10.0 mi NW 16.1 mph 24.2 mph N/A   Overcast
1:03 AM 26.6 °F 14.7 °F 24.8 °F 93% 29.92 in 10.0 mi NW 15.0 mph 26.5 mph N/A   Overcast
1:22 AM 26.6 °F 13.4 °F 24.8 °F 93% 29.91 in 10.0 mi NW 18.4 mph 25.3 mph N/A   Overcast
1:43 AM 26.6 °F 13.1 °F 23.0 °F 86% 29.92 in 10.0 mi NW 19.6 mph 26.5 mph N/A   Overcast
2:03 AM 26.6 °F 13.4 °F 23.0 °F 86% 29.92 in 10.0 mi NW 18.4 mph 26.5 mph N/A   Overcast
2:22 AM 26.6 °F 12.7 °F 23.0 °F 86% 29.92 in 10.0 mi NW 20.7 mph 31.1 mph N/A   Overcast
2:42 AM 26.6 °F 14.3 °F 23.0 °F 86% 29.93 in 10.0 mi NW 16.1 mph 27.6 mph N/A   Mostly Cloudy
3:03 AM 26.6 °F 14.7 °F 23.0 °F 86% 29.92 in 10.0 mi NW 15.0 mph 23.0 mph N/A   Scattered Clouds
3:22 AM 26.6 °F 16.2 °F 23.0 °F 86% 29.92 in 10.0 mi NW 11.5 mph 21.9 mph N/A   Clear
3:42 AM 26.6 °F 14.7 °F 21.2 °F 80% 29.92 in 10.0 mi NW 15.0 mph 23.0 mph N/A   Clear
4:03 AM 26.6 °F 13.4 °F 21.2 °F 80% 29.93 in 10.0 mi NW 18.4 mph 26.5 mph N/A   Clear
4:22 AM 26.6 °F 14.3 °F 21.2 °F 80% 29.94 in 10.0 mi NW 16.1 mph 27.6 mph N/A   Clear
4:42 AM 26.6 °F 14.3 °F 21.2 °F 80% 29.95 in 10.0 mi NW 16.1 mph 26.5 mph N/A   Clear
5:02 AM 26.6 °F 15.2 °F 21.2 °F 80% 29.97 in 10.0 mi NW 13.8 mph 24.2 mph N/A   Clear
5:22 AM 26.6 °F 14.3 °F 21.2 °F 80% 29.98 in 10.0 mi WNW 16.1 mph 26.5 mph N/A   Clear
5:43 AM 26.6 °F 13.8 °F 21.2 °F 80% 29.99 in 10.0 mi WNW 17.3 mph 29.9 mph N/A   Clear
6:03 AM 26.6 °F 15.7 °F 19.4 °F 74% 30.01 in 10.0 mi NW 12.7 mph 17.3 mph N/A   Clear
6:42 AM 26.6 °F 21.2 °F 17.6 °F 69% 30.03 in 10.0 mi NW 4.6 mph - N/A   Clear
7:02 AM 26.6 °F - 17.6 °F 69% 30.04 in 10.0 mi Calm Calm - N/A   Clear
7:22 AM 28.4 °F - 17.6 °F 64% 30.04 in 10.0 mi Calm Calm - N/A   Clear
7:42 AM 28.4 °F - 19.4 °F 69% 30.05 in 10.0 mi Calm Calm - N/A   Clear
8:02 AM 30.2 °F 25.4 °F 15.8 °F 55% 30.05 in 10.0 mi North 4.6 mph - N/A   Clear
8:22 AM 30.2 °F 22.6 °F 15.8 °F 55% 30.06 in 10.0 mi NNW 8.1 mph - N/A   Clear
8:42 AM 30.2 °F 21.9 °F 17.6 °F 60% 30.07 in 10.0 mi North 9.2 mph 16.1 mph N/A   Clear
9:02 AM 30.2 °F 21.3 °F 15.8 °F 55% 30.07 in 10.0 mi NNW 10.4 mph 17.3 mph N/A   Clear
9:23 AM 32.0 °F 25.6 °F 17.6 °F 55% 30.08 in 10.0 mi North 6.9 mph - N/A   Clear
9:42 AM 32.0 °F 23.6 °F 17.6 °F 55% 30.09 in 10.0 mi North 10.4 mph 16.1 mph N/A   Clear
10:02 AM 33.8 °F 28.6 °F 12.2 °F 41% 30.10 in 10.0 mi North 5.8 mph 16.1 mph N/A   Clear
10:24 AM 33.8 °F 26.4 °F 12.2 °F 41% 30.10 in 10.0 mi North 9.2 mph 16.1 mph 0.01 in   Clear
10:42 AM 35.6 °F 28.0 °F 12.2 °F 38% 30.11 in 10.0 mi North 10.4 mph - 0.01 in   Clear
11:02 AM 35.6 °F 30.7 °F 12.2 °F 38% 30.11 in 10.0 mi North 5.8 mph - N/A   Clear
11:22 AM 37.4 °F 33.8 °F 15.8 °F 41% 30.11 in 10.0 mi ENE 4.6 mph - N/A   Clear
11:44 AM 37.4 °F - 15.8 °F 41% 30.12 in 10.0 mi Calm Calm - N/A   Clear
12:02 PM 37.4 °F - 14.0 °F 38% 30.11 in 10.0 mi Calm Calm - N/A   Clear
12:22 PM 39.2 °F 35.9 °F 17.6 °F 42% 30.11 in 10.0 mi East 4.6 mph - N/A   Clear
1:02 PM 41.0 °F - 19.4 °F 42% 30.10 in 10.0 mi Calm Calm - N/A   Clear
1:22 PM 41.0 °F 36.4 °F 12.2 °F 31% 30.10 in 10.0 mi NE 6.9 mph - N/A   Clear
1:42 PM 41.0 °F 39.0 °F 8.6 °F 26% 30.11 in 10.0 mi ENE 3.5 mph - N/A   Clear
2:04 PM 42.8 °F 40.1 °F 12.2 °F 29% 30.10 in 10.0 mi ENE 4.6 mph - N/A   Clear
2:22 PM 42.8 °F 41.1 °F 10.4 °F 27% 30.09 in 10.0 mi NE 3.5 mph - N/A   Clear
2:42 PM 42.8 °F 39.3 °F 14.0 °F 31% 30.09 in 10.0 mi ESE 5.8 mph - N/A   Clear
3:02 PM 42.8 °F - 12.2 °F 29% 30.10 in 10.0 mi Calm Calm - N/A   Clear
3:22 PM 42.8 °F 40.1 °F 14.0 °F 31% 30.09 in 10.0 mi ENE 4.6 mph - N/A   Clear
4:22 PM 42.8 °F - 10.4 °F 27% 30.11 in 10.0 mi Calm Calm - N/A   Clear
4:42 PM 42.8 °F 41.1 °F 12.2 °F 29% 30.11 in 10.0 mi ENE 3.5 mph - N/A   Clear
5:04 PM 42.8 °F 41.1 °F 14.0 °F 31% 30.11 in 10.0 mi ENE 3.5 mph - N/A   Clear
5:22 PM 42.8 °F - 15.8 °F 34% 30.12 in 10.0 mi Calm Calm - N/A   Clear
5:42 PM 42.8 °F 41.1 °F 15.8 °F 34% 30.13 in 10.0 mi East 3.5 mph - N/A   Clear
6:02 PM 41.0 °F 39.0 °F 14.0 °F 33% 30.13 in 10.0 mi East 3.5 mph - N/A   Clear
6:22 PM 41.0 °F - 12.2 °F 31% 30.14 in 10.0 mi Calm Calm - N/A   Clear
6:42 PM 41.0 °F - 17.6 °F 39% 30.14 in 10.0 mi Calm Calm - N/A   Clear
7:02 PM 39.2 °F 37.0 °F 17.6 °F 42% 30.15 in 10.0 mi SSE 3.5 mph - N/A   Clear
7:22 PM 39.2 °F - 17.6 °F 42% 30.16 in 10.0 mi Calm Calm - N/A   Clear
7:44 PM 39.2 °F - 19.4 °F 45% 30.17 in 10.0 mi Calm Calm - N/A   Clear
8:02 PM 37.4 °F - 19.4 °F 48% 30.18 in 10.0 mi Calm Calm - N/A   Clear
8:22 PM 37.4 °F - 19.4 °F 48% 30.19 in 10.0 mi Calm Calm - N/A   Clear
8:44 PM 37.4 °F - 19.4 °F 48% 30.20 in 10.0 mi Calm Calm - N/A   Clear
9:02 PM 37.4 °F - 19.4 °F 48% 30.21 in 10.0 mi Calm Calm - N/A   Clear
9:22 PM 35.6 °F - 19.4 °F 52% 30.22 in 10.0 mi Calm Calm - N/A   Clear
9:42 PM 35.6 °F - 19.4 °F 52% 30.22 in 10.0 mi Calm Calm - N/A   Clear
10:02 PM 35.6 °F - 19.4 °F 52% 30.23 in 10.0 mi Calm Calm - N/A   Clear
10:22 PM 35.6 °F - 19.4 °F 52% 30.23 in 10.0 mi Calm Calm - N/A   Clear
10:42 PM 33.8 °F - 21.2 °F 60% 30.23 in 10.0 mi Calm Calm - N/A   Clear
11:02 PM 33.8 °F 30.8 °F 19.4 °F 56% 30.23 in 10.0 mi SE 3.5 mph - N/A   Clear
11:22 PM 33.8 °F - 19.4 °F 56% 30.23 in 10.0 mi Calm Calm - N/A   Clear
11:42 PM 33.8 °F 30.8 °F 17.6 °F 52% 30.23 in 10.0 mi SSE 3.5 mph - N/A   Clear